www.pogodaiklimat.ru

Погода и климат >> Архив погоды >> Украина >> Житомир


ПОГОДА в Житомире

АРХИВ ПОГОДЫ в Житомире

Время (UTC), дата Ветер
(напр.,м/с)
 
Видим.   Явления Облачность Т
(С)
Тd
(С)
f
(%)
Тe
(С)
Тes
(С)
Комфортность P
(гПа)
Po
(гПа)
Тmin
(С)
Tmax
(С)
R
(мм)
R24
(мм)
S
(см)
00 17.06 штиль 0 10 км 10/0
[Ac trans Cs]
+16.4 +14.0 86 +16 +16 по сезону 1014.4 988.7
03 17.06 штиль 0 10 км в посл. час ливневой дождь 10/3 600 м
[Cb cap Ac As]
+16.0 +14.3 90 +16 +16 по сезону 1013.6 987.9
06 17.06 С 1 10 км в посл. час ливневой дождь 10/4 1000 м
[Cb cap Ac As]
+17.2 +15.9 92 +18 +20 по сезону 1013.7 988.1 +15.7 0.0
09 17.06 СВ 1 10 км {ливн. осадки} 10/6 900 м
[Cb cap Ac As]
+21.2 +15.9 72 +25 +27 комфорт 1013.7 988.5
12 17.06 СВ 1 10 км {ливн. осадки} 8/3 600 м
[Cb cap As trans Ci fib]
+24.4 +17.9 67 +29 +37 душно 1012.9 988.0
15 17.06 СВ 1 10 км 8/1 1000 м
[Cb cap Ac trans Ci]
+26.0 +17.3 59 +30 +33 душно 1012.1 987.3
18 17.06 ЮВ 2 10 км в посл. час ливневой дождь 10/8 800 м
[Cb cap Ac As]
+24.0 +16.7 64 +28 +28 душно 1013.4 988.4 +26.5 0.0
21 17.06 штиль 0 10 км 8/0
[Ac trans]
+20.8 +18.1 85 +25 +25 комфорт 1013.5 988.3
00 18.06 штиль 0 4000 м дымка 3/0
[Ci]
+18.5 +17.5 94 +19 +19 тепло 1013.6 988.2
03 18.06 штиль 0 4000 м дымка 9/0
[Ac trans Cc]
+18.1 +17.6 97 +18 +19 тепло 1013.6 988.1
06 18.06 СВ 1 10 км 8/3 600 м
[Cu hum Ac trans Cc]
+23.4 +18.9 76 +30 +34 очень
душно
1014.1 989.1 +17.9
09 18.06 СВ 2 10 км 8/8 720 м
[Cu med, cong]
+25.8 +19.3 67 +31 +34 очень
душно
1014.5 989.7
12 18.06 В 2 10 км 6/3 600 м
[Cu med, cong Ac trans Ci fib]
+27.4 +17.6 55 +32 +40 очень
душно
1013.9 989.2
15 18.06 ЮВ 2 4000 м гроза, ливневой дождь 9/8 700 м
[Cb cap Ac trans Ci fib]
+27.3 +16.6 52 +31 +32 душно 1013.1 988.4
18 18.06 З 1 10 км в посл. час гроза {ливн. осадки} 10/8 900 м
[Cb calv Ac As]
+21.2 +18.2 83 +25 +25 комфорт 1015.5 990.2 +27.6 0.8
21 18.06 штиль 0 10 км 8/3 600 м
[Sc Ac trans]
+20.4 +17.8 85 +24 +24 комфорт 1016.3 991.0
00 19.06 штиль 0 10 км 8/0
[Ac trans]
+19.9 +18.0 89 +23 +23 комфорт 1016.4 991.0
03 19.06 штиль 0 10 км 6/0
[Ac trans Cc]
+18.0 +17.0 94 +18 +19 тепло 1016.9 991.3
06 19.06 З 1 10 км ясно +23.4 +17.8 71 +29 +38 душно 1017.0 991.9 +17.7
09 19.06 штиль 0 10 км 4/4 1000 м
[Cu med, cong]
+27.2 +16.5 52 +31 +44 душно 1016.9 992.1
12 19.06 З 2 10 км 4/4 1000 м
[Cu med, cong]
+29.0 +16.2 46 +32 +41 душно 1016.0 991.4
15 19.06 З 2 10 км 3/3 1000 м
[Cu med, cong]
+29.4 +15.3 42 +32 +35 душно 1015.1 990.5
18 19.06 З 1 10 км 3/0
[Ci fib]
+26.4 +15.8 52 +30 +30 душно 1015.8 990.9 +30.0
21 19.06 З 1 10 км ясно +22.7 +16.7 69 +27 +27 душно 1016.9 991.7
00 20.06 З 1 10 км ясно +20.9 +17.0 78 +26 +26 душно 1017.9 992.5
03 20.06 С 1 10 км 9/3 600 м
[Sc Ac trans]
+19.7 +14.8 73 +23 +23 комфорт 1019.1 993.6
06 20.06 штиль 0 10 км 3/0
[Ac trans Ci fib]
+23.6 +13.7 54 +26 +35 жарко 1019.4 994.2 +19.3
09 20.06 СЗ 3 10 км 4/4 1000 м
[Cu med, cong]
+26.2 +12.2 42 +28 +36 жарко 1019.4 994.4
12 20.06 СЗ 2 10 км 6/4 1000 м
[Cb calv Ac trans]
+25.7 +13.3 46 +28 +35 жарко 1019.0 994.0
15 20.06 СЗ 1 10 км 3/3 1000 м
[Cu med, cong]
+26.2 +14.0 47 +28 +32 жарко 1017.9 993.0
18 20.06 штиль 0 10 км 3/0
[Ci fib]
+23.8 +14.2 55 +26 +26 жарко 1017.5 992.4 +27.2
21 20.06 штиль 0 10 км ясно +19.8 +14.7 72 +22 +22 комфорт 1018.5 993.0
00 21.06 штиль 0 10 км ясно +17.6 +14.3 81 +18 +18 тепло 1018.8 993.1
03 21.06 штиль 0 10 км ясно +16.6 +14.2 86 +16 +17 по сезону 1018.7 992.9
06 21.06 штиль 0 10 км ясно +23.7 +14.7 57 +26 +37 жарко 1017.5 992.4 +16.5
09 21.06 З 2 10 км 8/5 1200 м
[Cu hum Cc]
+26.7 +13.2 43 +28 +36 жарко 1015.9 991.0
12 21.06 ЮЗ 2 10 км 9/4 1000 м
[Cu hum Ci]
+27.8 +13.6 42 +30 +37 жарко 1013.8 989.1
15 21.06 Ю 3 10 км 9/4 1000 м
[Cu hum Cs]
+28.0 +14.5 44 +30 +32 жарко 1011.7 987.1
18 21.06 Ю 1 10 км 6/0
[Cc]
+25.8 +15.5 53 +29 +29 душно 1011.1 986.3 +28.7
21 21.06 ЮЗ 1 10 км 8/0
[Cs]
+23.4 +16.4 65 +28 +28 душно 1010.1 985.1
00 22.06 Ю 1 10 км ясно +21.6 +16.5 73 +25 +25 комфорт 1009.1 984.0
03 22.06 Ю 2 10 км 3/0
[Cc]
+20.7 +16.6 77 +25 +25 комфорт 1008.0 982.9
06 22.06 З 2 10 км 8/1 600 м
[Cb cap Ac trans Ci fib]
+24.2 +17.3 65 +28 +32 душно 1008.0 983.2 +20.4
09 22.06 СЗ 2 10 км 10/8 630 м
[Cb cap Ac As]
+19.8 +14.0 69 +22 +23 комфорт 1010.3 985.0
12 22.06 С 1 4000 м слабый ливневой дождь 10/8 270 м
[Cb cap Ac und]
+16.6 +13.4 81 +17 +19 холодно 1011.5 985.9
15 22.06 С 1 10 км {гроза, ливн. осадки} 10/8 700 м
[Cb cap Ac und]
+17.6 +13.4 76 +19 +19 прохладно 1012.1 986.6
18 22.06 С 1 10 км {гроза, ливн. осадки} 9/6 700 м
[Sc Ac As Cc]
+16.6 +11.5 72 +17 +17 прохладно 1012.5 986.9 +24.2 5
21 22.06 С 1 10 км 10/0
[Ac und]
+14.7 +11.0 78 +15 +15 прохладно 1012.7 986.9
00 23.06 штиль 0 10 км 10/0
[Ac und]
+14.3 +11.1 81 +14 +14 по сезону 1011.8 986.0
03 23.06 штиль 0 4000 м слабый ливневой дождь 10/10 300 м
[Cb cap]
+11.9 +11.0 94 +11 +11 холодно 1010.8 984.8
06 23.06 СЗ 1 4000 м слабый ливневой дождь 10/10 300 м
[Cb cap]
+12.0 +11.2 95 +12 +12 холодно 1011.1 985.1 +11.7 6
09 23.06 СЗ 1 10 км в посл. час ливневой дождь 10/10 360 м
[Cb cap]
+11.4 +10.0 91 +11 +11 очень
холодно
1011.6 985.5
12 23.06 С 1 10 км слабый дождь {ливн. осадки} 10/10 400 м
[Frnb]
+11.5 +10.1 91 +11 +11 очень
холодно
1011.3 985.2
15 23.06 СЗ 1 4000 м слабый дождь 10/8 300 м
[Frnb As op]
+11.4 +10.4 94 +11 +11 очень
холодно
1011.6 985.5
18 23.06 З 1 2000 м ливневой дождь 10/10 300 м
[Cb cap]
+10.6 +9.6 94 +10 +10 очень
холодно
1012.7 986.5 +12.4 5
21 23.06 З 2 4000 м дымка {ливн. осадки, дождь} 10/10 300 м
[Frnb]
+10.0 +9.0 93 +8 +8 очень
холодно
1013.5 987.2

 

Местоположение метеостанции Житомир (Житомирская область, Украина): широта 50.23 долгота 28.73 высота над уровнем моря 224 м.

В архиве по умолчанию представлена погода в Житомире за последнюю неделю. Архивные данные за месяц целиком и за предыдущие месяцы, начиная с января 2011 года, Вы можете получить, выбрав интересующий диапазон дат из раскрывающегося списка и нажав кнопку "Ввод!".


*Определитесь, кто Вы:
робот инопланетянин человек

Внимание! Время в таблицах - всемирное. Для получения местного времени необходимо прибавить поправку, которая в Житомире равна 2 ч.

Смотрите также архив погоды в соседних городах и на ближайших метеорологических станциях:

Погода в Белополе (Винницкая область, Украина) (46 км)
Погода в Тетереве (Киевская область, Украина) (80 км)
Погода в Коростени (Житомирская область, Украина) (80 км)
Погода в Фастове (Киевская область, Украина) (86 км)
Погода в Новограде-Волынском (Житомирская область, Украина) (88 км)
Погода в Виннице (Винницкая область, Украина) (112 км)
Погода в Белой Церкви (Киевская область, Украина) (113 км)
Погода в Шепетовке (Хмельницкая область, Украина) (121 км)
Погода в Овруче (Житомирская область, Украина) (121 км)
Погода в Хмельнике (Винницкая область, Украина) (130 км)

Пояснения к столбцам:

Ветер - указаны скорость ветра в м/с - средняя за 10 мин, порывы в срок и между сроками (в фигурных скобках) и направление, откуда дует ветер: С - северный, СВ - северо-восточный, В - восточный, ЮВ - юго-восточный, Ю - южный, ЮЗ - юго-западный, З - западный, СЗ - северо-западный.
Видимость - горизонтальная дальность видимости в метрах или километрах. При видимости от 1 до 10 км при отсутствии осадков обычно наблюдается дымка, при ухудшении видимости до 1 км и менее - туман. В сухую погоду видимость может ухудшаться дымом, пылью или мглою.
Явления - указаны атмосферные явления, наблюдавшиеся в срок или в последний час перед сроком; фигурными скобками обозначены явления, наблюдавшиеся между сроками (за 1-3 часа до срока); квадратными скобками обозначены град или гололедные отложения с указанием их диаметра в мм.
Облачность - указаны через наклонную черту общая и нижняя облачность в баллах и высота нижней границы облаков в метрах; квадратными скобками обозначены формы облаков: Ci - перистые, Cs - перисто-слоистые, Cc - перисто-кучевые, Ac - высококучевые, As - высокослоистые, Sc - слоисто-кучевые, Ns - слоисто-дождевые, Cu - кучевые, Cb - кучево-дождевые. Подробнее классификацию облаков см. в Атласе облаков (PDF).
T - Температура воздуха - температура, измеренная на высоте 2 м над землей.
Td - Температура точки росы - температура, при понижении до которой содержащийся в воздухе водяной пар достигнет насыщения.
f - Относительная влажность воздуха - влажноcть воздуха, измеренная на высоте 2 м над землей.
Te - Эффективная температура - температура, которую ощущает одетый по сезону человек в тени. Характеристика душности погоды. При расчете учитывается влияние влажности воздуха и скорости ветра на теплоощущения человека.
Tes - Эффективная температура на солнце - температура, которую ощущает человек, с поправкой на солнечный нагрев. Характеристика знойности погоды. Зависит от высоты солнца над горизонтом, облачности и скорости ветра. Ночью, в пасмурную погоду, а также при ветре 12 м/с и более поправка равна нулю.
P - Атмосферное давление - приведенное к уровню моря атмосферное давление.
Po - Атмосферное давление - измеренное на уровне метеостанции атмосферное давление.
Tmin - Минимальная температура - минимум температуры воздуха на высоте 2 м над землей.
Tmax - Максимальная температура - максимум температуры воздуха на высоте 2 м над землей.
R - Количество осадков - Количество выпавших осадков за период времени, мм. При наведении курсора мыши на число - период времени, за который выпало указанное количество осадков.
R24 - Количество осадков - Количество выпавших осадков за 24 часа, мм.
S - Снежный покров - Высота снежного покрова, см. При наведении курсора мыши на число - состояние снежного покрова и степень покрытия местности в баллах.